This is the latest recevied weather packets stored in our database for station/object 9M4GEK-3. If no packets are shown the sender has not sent any weather packets the latest 10 day(s).
| Time | Temp. | Humidity | Pressure | Rain* | Wind** | Luminosity | Snow |
|---|---|---|---|---|---|---|---|
| 1788591778 | 43.89° C | 29% | 1009.4 hPa | - | - | - | - |
| 1788590957 | 40° C | 35% | 1011.1 hPa | - | - | - | - |
| 1788590878 | 43.89° C | 29% | 1009.7 hPa | - | - | - | - |
| 1788589977 | 43.33° C | 30% | 1009.9 hPa | - | - | - | - |
| 1788589077 | 41.67° C | 33% | 1010.3 hPa | - | - | - | - |
| 1788588177 | 42.78° C | 31% | 1010.6 hPa | - | - | - | - |
| 1788587277 | 43.89° C | 30% | 1010.8 hPa | - | - | - | - |
| 1788586378 | 40° C | 35% | 1011.1 hPa | - | - | - | - |
| 1788585478 | 43.89° C | 30% | 1011.3 hPa | - | - | - | - |
| 1788584578 | 44.44° C | 30% | 1011.7 hPa | - | - | - | - |
| 1788583708 | 44.44° C | 29% | 1011.9 hPa | - | - | - | - |
| 1788583227 | 36.11° C | 46% | 1012.8 hPa | - | - | - | - |
| 1788582778 | 46.11° C | 28% | 1012.1 hPa | - | - | - | - |
| 1788581878 | 45° C | 31% | 1012.1 hPa | - | - | - | - |
| 1788580978 | 44.44° C | 32% | 1012.3 hPa | - | - | - | - |
| 1788580372 | 40.56° C | 39% | 1012.5 hPa | - | - | - | - |
| 1788580077 | 40° C | 39% | 1012.5 hPa | - | - | - | - |
| 1788579178 | 37.78° C | 41% | 1012.7 hPa | - | - | - | - |
| 1788578278 | 43.33° C | 34% | 1012.7 hPa | - | - | - | - |
| 1788577378 | 41.11° C | 38% | 1012.9 hPa | - | - | - | - |
| 1788577203 | 35.56° C | 48% | 1012.4 hPa | - | - | - | - |
| 1788576478 | 36.11° C | 46% | 1013 hPa | - | - | - | - |
| 1788575578 | 37.22° C | 44% | 1013 hPa | - | - | - | - |
| 1788574725 | 35° C | 49% | 1012.5 hPa | - | - | - | - |
| 1788574678 | 35.56° C | 47% | 1013 hPa | - | - | - | - |
* Rain since midnight (hover to see other rain measurements)
** Current wind speed in m/s (hover to see current wind gust speed)